This demonstration page uses our WeatherBlox Daily Observations layout. Learn more.

Hourly Observations for May 6, 2016

Temp ( °F °C ) Dew Point ( °F °C ) Humidity (%) Winds ( mph kmh ) Pressure ( in mb ) Visibility ( mi km ) Precip ( " mm )
12:15 am 00:15 Cloudy with Light Drizzle 52 11 52 11 100 100 NNW 7 11 29.68 1005 10 16.0934 0 0
12:35 am 00:35 Cloudy with Light Rain 52 11 52 11 100 100 NNW 7 11 29.71 1006 7 11.26538 0 0
12:55 am 00:55 Cloudy 52 11 52 11 100 100 N 8 13 29.68 1005 10 16.0934 0 0
1:15 am 01:15 Cloudy 52 11 52 11 100 100 N 8 13 29.68 1005 10 16.0934 0 0
1:35 am 01:35 Cloudy 52 11 52 11 100 100 N 8 13 29.68 1005 10 16.0934 0 0
1:55 am 01:55 Cloudy 52 11 52 11 100 100 N 5 7 29.68 1005 10 16.0934 0 0
2:15 am 02:15 Cloudy 54 12 54 12 100 100 N 7 11 29.68 1005 10 16.0934 0 0
2:35 am 02:35 Cloudy 54 12 54 12 100 100 N 5 7 29.68 1005 10 16.0934 0 0
2:55 am 02:55 Cloudy 52 11 52 11 100 100 N 3 6 29.68 1005 10 16.0934 0 0
3:15 am 03:15 Cloudy 52 11 52 11 100 100 N 5 7 29.68 1005 10 16.0934 0 0
3:35 am 03:35 Cloudy 52 11 52 11 100 100 NNW 6 9 29.68 1005 10 16.0934 0 0
3:55 am 03:55 Cloudy with Light Rain 54 12 52 11 94 94 N 7 11 29.68 1005 10 16.0934 0 0
4:15 am 04:15 Cloudy 52 11 52 11 100 100 NNW 9 15 29.68 1005 10 16.0934 0 0
4:35 am 04:35 Cloudy 52 11 52 11 100 100 N 6 9 29.68 1005 10 16.0934 0 0
4:55 am 04:55 Cloudy 54 12 54 12 100 100 N 8 13 29.68 1005 10 16.0934 0 0
5:15 am 05:15 Cloudy with Light Rain 52 11 52 11 100 100 N 7 11 29.68 1005 10 16.0934 0 0
5:35 am 05:35 Cloudy 52 11 52 11 100 100 NW 5 7 29.68 1005 10 16.0934 0 0
5:55 am 05:55 Cloudy 52 11 52 11 100 100 NW 6 9 29.68 1005 10 16.0934 0 0
6:15 am 06:15 Cloudy 52 11 52 11 100 100 NNW 5 7 29.68 1005 10 16.0934 0 0
6:35 am 06:35 Cloudy 52 11 52 11 100 100 N 6 9 29.68 1005 10 16.0934 0 0
6:55 am 06:55 Cloudy 54 12 52 11 94 94 NNW 5 7 29.68 1005 10 16.0934 0 0
7:15 am 07:15 Cloudy with Light Rain 54 12 52 11 94 94 NNW 7 11 29.71 1006 10 16.0934 0 0
7:35 am 07:35 Cloudy with Rain 54 12 52 11 94 94 N 9 15 29.71 1006 10 16.0934 0 0
7:55 am 07:55 Cloudy with Light Rain 54 12 52 11 94 94 N 7 11 29.71 1006 10 16.0934 0 0
8:15 am 08:15 Cloudy with Light Rain 54 12 54 12 100 100 NNW 8 13 29.71 1006 10 16.0934 0 0
8:35 am 08:35 Cloudy with Light Rain 54 12 54 12 100 100 NNW 6 9 29.71 1006 10 16.0934 0 0
8:55 am 08:55 Cloudy with Light Rain 54 12 54 12 100 100 NNW 8 13 29.71 1006 10 16.0934 0 0
9:15 am 09:15 Cloudy with Light Rain 54 12 54 12 100 100 NNW 9 15 29.71 1006 10 16.0934 0 0
9:35 am 09:35 Cloudy with Light Rain 54 12 54 12 100 100 NNW 7 11 29.71 1006 10 16.0934 0 0
9:55 am 09:55 Cloudy with Light Rain 54 12 54 12 100 100 NNW 10 17 29.71 1006 10 16.0934 0 0
10:15 am 10:15 Cloudy 55 13 54 12 94 94 NNW 9 15 29.71 1006 10 16.0934 0 0
10:35 am 10:35 Cloudy with Light Rain 55 13 54 12 94 94 N 7 11 29.71 1006 5 8.0467 0 0
10:55 am 10:55 Cloudy with Light Rain 54 12 54 12 100 100 NNW 9 15 29.71 1006 7 11.26538 0 0
11:15 am 11:15 Cloudy with Rain 54 12 54 12 100 100 NNW 9 15 29.71 1006 7 11.26538 0 0
11:35 am 11:35 Cloudy with Rain 54 12 54 12 100 100 NW 6 9 29.71 1006 7 11.26538 0 0
11:55 am 11:55 Cloudy with Light Rain 54 12 54 12 100 100 NW 8 13 29.71 1006 10 16.0934 0 0
12:15 pm 12:15 Cloudy with Rain 54 12 54 12 100 100 NW 8 13 29.71 1006 10 16.0934 0 0
12:35 pm 12:35 Cloudy with Rain 54 12 54 12 100 100 NNW 10 17 29.71 1006 10 16.0934 0 0
12:55 pm 12:55 Cloudy with Rain 54 12 54 12 100 100 NNW 14 22 29.71 1006 10 16.0934 0 0
1:15 pm 13:15 Cloudy with Rain 54 12 54 12 100 100 NNW 13 20 29.71 1006 7 11.26538 0 0
1:35 pm 13:35 Cloudy with Heavy Rain 54 12 54 12 100 100 N 9 15 29.71 1006 3 4.82802 0 0
1:55 pm 13:55 Cloudy with Rain 54 12 54 12 100 100 N 12 19 29.71 1006 5 8.0467 0 0
2:15 pm 14:15 Cloudy with Rain 54 12 54 12 100 100 NW 6 9 29.71 1006 7 11.26538 0 0
2:35 pm 14:35 Cloudy with Rain 54 12 54 12 100 100 NNW 12 19 29.71 1006 3 4.82802 0 0
2:55 pm 14:55 Cloudy with Rain 54 12 54 12 100 100 NNW 13 20 29.71 1006 7 11.26538 0 0
3:15 pm 15:15 Cloudy with Rain 54 12 52 11 94 94 N 13 20 29.68 1005 10 16.0934 0 0
3:35 pm 15:35 Cloudy 54 12 52 11 94 94 NNW 13 20 29.68 1005 10 16.0934 0 0
3:55 pm 15:55 Cloudy with Light Rain 54 12 54 12 100 100 NW 16 26 29.68 1005 10 16.0934 0 0
4:15 pm 16:15 Cloudy with Light Rain 54 12 54 12 100 100 NW 15 24 29.68 1005 10 16.0934 0 0
4:35 pm 16:35 Cloudy with Light Rain 54 12 54 12 100 100 NW 17 28 29.68 1005 10 16.0934 0 0
4:55 pm 16:55 Cloudy with Light Drizzle 54 12 54 12 100 100 NW 14 22 29.68 1005 5 8.0467 0 0
5:15 pm 17:15 Cloudy with Light Rain 54 12 54 12 100 100 NNW 16 26 29.68 1005 10 16.0934 0 0
5:35 pm 17:35 Cloudy with Light Rain 54 12 54 12 100 100 NW 12 19 29.68 1005 4 6.43736 0 0
5:55 pm 17:55 Cloudy with Rain 54 12 52 11 94 94 NNW 12 19 29.68 1005 7 11.26538 0 0
6:15 pm 18:15 Cloudy with Light Rain 54 12 54 12 100 100 NW 13 20 29.68 1005 10 16.0934 0 0
6:35 pm 18:35 Cloudy with Light Rain 54 12 54 12 100 100 NW 10 17 29.68 1005 10 16.0934 0 0
6:55 pm 18:55 Cloudy with Light Rain 54 12 54 12 100 100 NW 10 17 29.68 1005 5 8.0467 0 0
7:15 pm 19:15 Cloudy with Rain 54 12 54 12 100 100 NW 9 15 29.71 1006 7 11.26538 0 0
7:35 pm 19:35 Cloudy with Light Drizzle 52 11 52 11 100 100 NNW 9 15 29.71 1006 5 8.0467 0 0
7:55 pm 19:55 Cloudy 52 11 52 11 100 100 NW 7 11 29.71 1006 10 16.0934 0 0
8:15 pm 20:15 Cloudy 52 11 52 11 100 100 NW 7 11 29.71 1006 10 16.0934 0 0
8:35 pm 20:35 Cloudy 52 11 52 11 100 100 NW 8 13 29.71 1006 10 16.0934 0 0
8:55 pm 20:55 Cloudy 52 11 52 11 100 100 WNW 7 11 29.71 1006 10 16.0934 0 0
9:15 pm 21:15 Cloudy 52 11 52 11 100 100 WNW 8 13 29.71 1006 10 16.0934 0 0
9:35 pm 21:35 Cloudy 52 11 52 11 100 100 WNW 8 13 29.71 1006 10 16.0934 0 0
9:55 pm 21:55 Cloudy with Light Drizzle 52 11 52 11 100 100 NW 8 13 29.71 1006 7 11.26538 0 0
10:15 pm 22:15 Cloudy with Light Rain 52 11 52 11 100 100 NW 10 17 29.74 1007 10 16.0934 0 0
10:35 pm 22:35 Cloudy with Rain 52 11 52 11 100 100 NW 12 19 29.74 1007 7 11.26538 0 0
10:55 pm 22:55 Cloudy 52 11 52 11 100 100 NW 12 19 29.74 1007 10 16.0934 0 0
11:15 pm 23:15 Cloudy 52 11 52 11 100 100 NW 12 19 29.74 1007 10 16.0934 0 0
11:35 pm 23:35 Cloudy with Mist and Fog 52 11 52 11 100 100 NW 10 17 29.74 1007 4 6.43736 0 0
11:55 pm 23:55 Cloudy with Light Rain 52 11 52 11 100 100 NW 9 15 29.74 1007 3 4.82802 0 0

Powered by AerisWeather